Jackson, WY

6:37 AM MST on December 15, 2019 (GMT -0700)
Jackson Hole

Weather History for KJAC - October, 2019

Change the Weather History Date:

Wednesday, October 9, 2019

  Actual Average Record
Temperature  
Mean Temperature 34 °F -  
Max Temperature 51 °F 56 °F 74 °F (1965)
Min Temperature 21 °F 24 °F 11 °F (1968)
Degree Days  
Heating Degree Days 30    
Moisture  
Dew Point 21 °F    
Average Humidity 67    
Maximum Humidity 93    
Minimum Humidity 36    
Precipitation  
Precipitation 0.00 in - - ()
Sea Level Pressure  
Sea Level Pressure 29.84 in    
Wind  
Wind Speed 10 mph ()    
Max Wind Speed 18 mph    
Max Gust Speed 26 mph    
Visibility 7.1 miles    
Events Rain , Snow    
Averages and records for this station are not official NWS values.
T = Trace of Precipitation, MM = Missing Value Source: Averaged Metar Reports

Daily Weather History Graph

Daily Weather History Graph

Search for Another Location

Airport or City:

Astronomy

Oct. 09, 2019 Rise Set
Actual Time 7:29 AM MDT 6:50 PM MDT
Civil Twilight 7:01 AM MDT 7:18 PM MDT
Nautical Twilight 6:27 AM MDT 7:51 PM MDT
Astronomical Twilight 5:54 AM MDT 8:25 PM MDT
Moon 5:33 PM MDT (10/9) 3:09 AM MDT (10/9)
Length of Visible Light 12h 17m
Length of Day
11h 20m
Waxing Gibbous, 85% of the Moon is Illuminated
Oct 9
Waxing Gibbous
Oct 13
Full
Oct 21
Last Quarter
Oct 27
New
Nov 4
First Quarter

Hourly Weather History & Observations

Time (MDT) Temp. Windchill Dew Point Humidity Pressure Visibility Wind Dir Wind Speed Gust Speed Precip Events Conditions
12:56 AM 48.9 °F - 23.0 °F 36% 29.57 in 10.0 mi SSW 11.5 mph - N/A   Partly Cloudy
1:56 AM 48.0 °F - 24.1 °F 39% 29.54 in 10.0 mi South 12.7 mph - N/A   Clear
2:56 AM 46.0 °F 41.9 °F 24.1 °F 42% 29.53 in 10.0 mi SSW 8.1 mph - N/A   Overcast
3:56 AM 46.9 °F - 25.0 °F 42% 29.51 in 10.0 mi SW 6.9 mph - N/A   Mostly Cloudy
4:56 AM 48.9 °F - 26.1 °F 41% 29.53 in 10.0 mi WSW 17.3 mph - N/A   Overcast
5:56 AM 44.1 °F 37.4 °F 30.0 °F 58% 29.56 in 10.0 mi SSW 13.8 mph 19.6 mph 0.00 in Rain Light Rain
6:56 AM 39.0 °F 31.8 °F 32.0 °F 76% 29.63 in 10.0 mi SSW 11.5 mph - 0.00 in Rain Light Rain
7:56 AM 36.0 °F 27.5 °F 30.9 °F 82% 29.68 in 10.0 mi SW 12.7 mph - 0.00 in Rain Light Rain
8:30 AM 33.8 °F 25.8 °F 30.2 °F 87% 29.74 in 3.0 mi SW 10.4 mph - 0.00 in Snow Light Snow
8:56 AM 34.0 °F 25.0 °F 30.0 °F 85% 29.72 in 6.0 mi South 12.7 mph - 0.00 in   Overcast
9:00 AM 33.8 °F 24.8 °F 30.2 °F 87% 29.76 in 9.0 mi South 12.7 mph - 0.00 in Snow Light Snow
9:15 AM 33.8 °F 28.6 °F 28.4 °F 81% 29.77 in 9.0 mi SW 5.8 mph - 0.00 in Snow Light Snow
9:22 AM 33.8 °F - 28.4 °F 81% 29.77 in 1.8 mi Calm Calm - 0.00 in Snow Light Snow
9:40 AM 30.2 °F 20.8 °F 28.4 °F 93% 29.78 in 3.0 mi South 11.5 mph - 0.00 in Snow Light Snow
9:48 AM 30.2 °F 19.3 °F 28.4 °F 93% 29.78 in 9.0 mi South 15.0 mph - 0.00 in Snow Light Snow
9:56 AM 32.0 °F 23.0 °F 28.0 °F 85% 29.76 in 9.0 mi South 11.5 mph - 0.00 in Snow Light Snow
10:56 AM 36.0 °F 27.1 °F 27.0 °F 70% 29.74 in 10.0 mi SSW 13.8 mph - 0.00 in   Scattered Clouds
11:56 AM 36.0 °F 25.6 °F 21.9 °F 57% 29.74 in 10.0 mi South 18.4 mph 26.5 mph 0.00 in Rain Light Rain
12:40 PM 32.0 °F 22.5 °F 23.0 °F 69% 29.79 in 3.0 mi West 12.7 mph - 0.00 in Snow Light Snow
12:56 PM 35.1 °F 26.4 °F 21.0 °F 57% 29.78 in 2.5 mi WSW 12.7 mph 24.2 mph 0.00 in Snow Light Snow
1:03 PM 35.6 °F 27.1 °F 19.4 °F 52% 29.79 in 7.0 mi SW 12.7 mph 19.6 mph 0.00 in Snow Light Snow
1:56 PM 33.1 °F 21.9 °F 9.0 °F 37% 29.81 in 10.0 mi West 18.4 mph 26.5 mph 0.00 in   Overcast
2:56 PM 33.1 °F 23.4 °F 18.0 °F 54% 29.85 in 10.0 mi West 13.8 mph 24.2 mph N/A   Mostly Cloudy
3:56 PM 33.1 °F 23.9 °F 10.9 °F 40% 29.87 in 10.0 mi WSW 12.7 mph 19.6 mph 0.00 in   Clear
4:56 PM 28.9 °F 18.2 °F 19.9 °F 69% 29.91 in 4.0 mi West 13.8 mph - 0.00 in Snow Light Snow
5:08 PM 28.4 °F 19.1 °F 21.2 °F 74% 29.90 in 1.8 mi West 10.4 mph - 0.00 in Snow Light Snow
5:13 PM 26.6 °F 18.2 °F 21.2 °F 80% 29.90 in 3.0 mi West 8.1 mph - 0.00 in Snow Light Snow
5:56 PM 28.0 °F 17.5 °F 12.9 °F 53% 29.97 in 9.0 mi West 12.7 mph - 0.00 in   Scattered Clouds
6:56 PM 25.0 °F 14.8 °F 12.0 °F 58% 30.05 in 9.0 mi WSW 10.4 mph - 0.00 in Snow Light Snow
7:56 PM 23.0 °F 11.1 °F 10.9 °F 60% 30.09 in 10.0 mi SW 12.7 mph - 0.00 in   Scattered Clouds
8:56 PM 23.0 °F 9.6 °F 12.0 °F 63% 30.12 in 9.0 mi SW 16.1 mph 19.6 mph 0.00 in Snow Light Snow
9:56 PM 23.0 °F 11.7 °F 12.9 °F 65% 30.14 in 10.0 mi South 11.5 mph - 0.00 in   Overcast
10:56 PM 23.0 °F 13.9 °F 12.9 °F 65% 30.15 in 9.0 mi SSW 8.1 mph - 0.00 in Snow Light Snow
11:08 PM 23.0 °F 13.1 °F 12.2 °F 63% 30.05 in 3.0 mi SSW 9.2 mph - 0.00 in Snow Light Snow
11:11 PM 21.2 °F 14.9 °F 14.0 °F 74% 30.05 in 1.8 mi SSE 4.6 mph - 0.00 in Snow Light Snow
11:29 PM 21.2 °F 13.6 °F 17.6 °F 86% 30.05 in 2.5 mi SSW 5.8 mph - 0.00 in Snow Light Snow
11:36 PM 21.2 °F 16.4 °F 17.6 °F 86% 30.05 in 4.0 mi West 3.5 mph - 0.00 in Snow Light Snow
11:46 PM 21.2 °F 14.9 °F 17.6 °F 86% 30.06 in 4.0 mi West 4.6 mph - 0.00 in Snow Light Snow
11:53 PM 21.2 °F 14.9 °F 17.6 °F 86% 30.06 in 5.0 mi NW 4.6 mph - 0.00 in Snow Light Snow
11:56 PM 21.0 °F 13.4 °F 17.1 °F 85% 30.17 in 5.0 mi NNW 5.8 mph - 0.00 in Snow Light Snow